When you browse on this site, cookies collect data to enhance your experience and personalize the content and advertising you see.
Visit our Privacy Policy to learn more. By continuing to use the site, you agree to this use of cookies and data.
  • en Suisse
  • Liste des pays
  • À 7 jours
  • Température de l'eau
  • Carte météo
  • Widgets météo
  • user-avatar
    Se connecter

    Météo par heure à Eghegnadzor

    Ce jour, 18 Octobre, Vendredi

    Heure Température Précipitation Vent Pression Humidité
    00:00 +14°C° 0 mm 1 m/s 656 mmHg 24%
    01:00 +14°C° 0 mm 1 m/s 656 mmHg 24%
    02:00 +13°C° 0 mm 1 m/s 656 mmHg 25%
    03:00 +13°C° 0 mm 1 m/s 656 mmHg 26%
    04:00 +13°C° 0 mm 1 m/s 656 mmHg 27%
    05:00 +13°C° 0 mm 1 m/s 656 mmHg 27%
    06:00 +12°C° 0 mm 1 m/s 655 mmHg 27%
    07:00 +15°C° 0 mm 1 m/s 656 mmHg 24%
    08:00 +19°C° 0 mm 1 m/s 657 mmHg 21%
    09:00 +19°C° 0 mm 0 m/s 658 mmHg 18%
    10:00 +22°C° 0 mm 1 m/s 658 mmHg 18%
    11:00 +23°C° 0 mm 2 m/s 658 mmHg 18%
    12:00 +24°C° 0 mm 2 m/s 658 mmHg 18%
    13:00 +24°C° 0 mm 2 m/s 657 mmHg 19%
    14:00 +24°C° 0 mm 2 m/s 657 mmHg 19%
    15:00 +24°C° 0 mm 2 m/s 656 mmHg 20%
    16:00 +22°C° 0 mm 1 m/s 656 mmHg 24%
    17:00 +20°C° 0 mm 1 m/s 655 mmHg 28%
    18:00 +16°C° 0 mm 0 m/s 655 mmHg 32%
    19:00 +16°C° 0 mm 1 m/s 655 mmHg 33%
    20:00 +16°C° 0 mm 1 m/s 655 mmHg 34%
    21:00 +16°C° 0 mm 1 m/s 655 mmHg 34%
    22:00 +15°C° 0 mm 1 m/s 654 mmHg 36%
    23:00 +15°C° 0 mm 1 m/s 654 mmHg 38%

    Demain, 19 Octobre, Samedi

    Heure Température Précipitation Vent Pression Humidité
    00:00 +15°C° 0 mm 1 m/s 654 mmHg 40%
    01:00 +14°C° 0 mm 1 m/s 654 mmHg 41%
    02:00 +14°C° 0 mm 1 m/s 654 mmHg 42%
    03:00 +14°C° 0 mm 1 m/s 654 mmHg 43%
    04:00 +13°C° 0 mm 1 m/s 654 mmHg 45%
    05:00 +13°C° 0 mm 1 m/s 654 mmHg 46%
    06:00 +13°C° 0 mm 1 m/s 654 mmHg 47%
    07:00 +15°C° 0 mm 1 m/s 655 mmHg 42%
    08:00 +19°C° 0 mm 1 m/s 656 mmHg 36%
    09:00 +21°C° 0 mm 1 m/s 657 mmHg 31%
    10:00 +22°C° 0 mm 1 m/s 657 mmHg 29%
    11:00 +23°C° 0 mm 2 m/s 657 mmHg 28%
    12:00 +24°C° 0 mm 3 m/s 657 mmHg 27%
    13:00 +24°C° 0 mm 2 m/s 656 mmHg 27%
    14:00 +24°C° 0 mm 2 m/s 656 mmHg 26%
    15:00 +24°C° 0 mm 2 m/s 656 mmHg 26%
    16:00 +21°C° 0 mm 2 m/s 655 mmHg 31%
    17:00 +20°C° 0 mm 1 m/s 655 mmHg 35%
    18:00 +16°C° 0 mm 0 m/s 654 mmHg 40%
    19:00 +18°C° 0 mm 1 m/s 655 mmHg 40%
    20:00 +16°C° 0 mm 1 m/s 655 mmHg 41%
    21:00 +16°C° 0 mm 1 m/s 655 mmHg 41%
    22:00 +16°C° 0 mm 1 m/s 655 mmHg 44%
    23:00 +15°C° 0 mm 1 m/s 655 mmHg 46%

    Après-demain, 20 Octobre, Dimanche

    Heure Température Précipitation Vent Pression Humidité
    00:00 +15°C° 0 mm 1 m/s 655 mmHg 48%
    01:00 +15°C° 0 mm 1 m/s 655 mmHg 49%
    02:00 +14°C° 0 mm 1 m/s 655 mmHg 51%
    03:00 +14°C° 0 mm 1 m/s 655 mmHg 52%
    04:00 +14°C° 0 mm 1 m/s 655 mmHg 53%
    05:00 +13°C° 0 mm 1 m/s 655 mmHg 55%
    06:00 +13°C° 0 mm 1 m/s 655 mmHg 56%
    07:00 +15°C° 0 mm 1 m/s 656 mmHg 50%
    08:00 +18°C° 0 mm 1 m/s 656 mmHg 43%
    09:00 +20°C° 0 mm 1 m/s 657 mmHg 36%
    10:00 +21°C° 0.1 mm 1 m/s 657 mmHg 34%
    11:00 +22°C° 0.1 mm 1 m/s 657 mmHg 32%
    12:00 +23°C° 0.1 mm 2 m/s 657 mmHg 31%
    13:00 +23°C° 0.1 mm 2 m/s 657 mmHg 31%
    14:00 +23°C° 0.1 mm 2 m/s 657 mmHg 31%
    15:00 +24°C° 0.1 mm 2 m/s 656 mmHg 32%
    16:00 +21°C° 0.1 mm 2 m/s 656 mmHg 39%
    17:00 +20°C° 0.1 mm 1 m/s 656 mmHg 46%
    18:00 +18°C° 0.1 mm 1 m/s 656 mmHg 53%
    19:00 +16°C° 0.2 mm 1 m/s 656 mmHg 56%
    20:00 +16°C° 0.2 mm 1 m/s 656 mmHg 59%
    21:00 +15°C° 0.2 mm 2 m/s 656 mmHg 62%
    22:00 +15°C° 0 mm 2 m/s 656 mmHg 63%
    23:00 +14°C° 0 mm 2 m/s 656 mmHg 64%

    21 Octobre, Lundi

    Heure Température Précipitation Vent Pression Humidité
    00:00 +14°C° 0 mm 2 m/s 656 mmHg 65%
    01:00 +14°C° 0 mm 2 m/s 656 mmHg 66%
    02:00 +14°C° 0 mm 1 m/s 656 mmHg 67%
    03:00 +13°C° 0 mm 1 m/s 656 mmHg 67%
    04:00 +13°C° 0 mm 1 m/s 656 mmHg 68%
    05:00 +13°C° 0 mm 1 m/s 656 mmHg 69%
    06:00 +12°C° 0 mm 1 m/s 656 mmHg 70%
    07:00 +14°C° 0 mm 1 m/s 656 mmHg 63%
    08:00 +15°C° 0 mm 1 m/s 657 mmHg 57%
    09:00 +18°C° 0 mm 1 m/s 658 mmHg 50%
    10:00 +19°C° 0 mm 1 m/s 658 mmHg 46%
    11:00 +20°C° 0 mm 1 m/s 658 mmHg 42%
    12:00 +21°C° 0 mm 1 m/s 657 mmHg 38%
    13:00 +22°C° 0.1 mm 1 m/s 657 mmHg 38%
    14:00 +21°C° 0.1 mm 2 m/s 657 mmHg 39%
    15:00 +21°C° 0.1 mm 2 m/s 657 mmHg 39%
    16:00 +19°C° 0.1 mm 2 m/s 656 mmHg 44%
    17:00 +19°C° 0.1 mm 1 m/s 656 mmHg 50%
    18:00 +16°C° 0.1 mm 1 m/s 656 mmHg 55%
    19:00 +15°C° 0 mm 1 m/s 656 mmHg 58%
    20:00 +15°C° 0 mm 1 m/s 656 mmHg 61%
    21:00 +14°C° 0 mm 2 m/s 656 mmHg 64%
    22:00 +14°C° 0 mm 2 m/s 656 mmHg 64%
    23:00 +13°C° 0 mm 2 m/s 656 mmHg 65%

    22 Octobre, Mardi

    Heure Température Précipitation Vent Pression Humidité
    00:00 +13°C° 0 mm 2 m/s 656 mmHg 65%
    01:00 +13°C° 0 mm 2 m/s 655 mmHg 66%
    02:00 +12°C° 0 mm 2 m/s 655 mmHg 66%
    03:00 +12°C° 0 mm 1 m/s 655 mmHg 67%
    04:00 +11°C° 0 mm 1 m/s 655 mmHg 67%
    05:00 +11°C° 0 mm 1 m/s 655 mmHg 68%
    06:00 +11°C° 0 mm 1 m/s 655 mmHg 68%
    07:00 +13°C° 0 mm 1 m/s 656 mmHg 60%
    08:00 +15°C° 0 mm 1 m/s 656 mmHg 51%
    09:00 +16°C° 0 mm 1 m/s 657 mmHg 43%
    10:00 +19°C° 0 mm 1 m/s 657 mmHg 40%
    11:00 +20°C° 0 mm 1 m/s 657 mmHg 37%
    12:00 +20°C° 0 mm 2 m/s 657 mmHg 35%
    13:00 +20°C° 0 mm 2 m/s 657 mmHg 35%
    14:00 +20°C° 0 mm 2 m/s 656 mmHg 35%
    15:00 +20°C° 0 mm 2 m/s 656 mmHg 34%
    16:00 +18°C° 0 mm 2 m/s 656 mmHg 39%
    17:00 +18°C° 0 mm 1 m/s 655 mmHg 44%
    18:00 +15°C° 0 mm 1 m/s 655 mmHg 49%
    19:00 +15°C° 0 mm 1 m/s 655 mmHg 51%
    20:00 +14°C° 0 mm 1 m/s 655 mmHg 53%
    21:00 +14°C° 0 mm 1 m/s 655 mmHg 55%
    22:00 +13°C° 0 mm 1 m/s 655 mmHg 57%
    23:00 +13°C° 0 mm 1 m/s 655 mmHg 59%

    23 Octobre, Mercredi

    Heure Température Précipitation Vent Pression Humidité
    00:00 +13°C° 0 mm 1 m/s 655 mmHg 60%
    01:00 +12°C° 0 mm 1 m/s 655 mmHg 61%
    02:00 +12°C° 0 mm 1 m/s 655 mmHg 62%
    03:00 +12°C° 0 mm 1 m/s 654 mmHg 63%
    04:00 +12°C° 0 mm 1 m/s 654 mmHg 64%
    05:00 +10°C° 0 mm 0 m/s 654 mmHg 65%
    06:00 +10°C° 0 mm 0 m/s 654 mmHg 66%
    07:00 +12°C° 0 mm 0 m/s 655 mmHg 58%
    08:00 +15°C° 0 mm 1 m/s 655 mmHg 50%
    09:00 +18°C° 0 mm 1 m/s 656 mmHg 42%
    10:00 +19°C° 0 mm 1 m/s 656 mmHg 40%
    11:00 +19°C° 0 mm 2 m/s 656 mmHg 38%
    12:00 +20°C° 0 mm 2 m/s 656 mmHg 35%
    13:00 +20°C° 0 mm 2 m/s 656 mmHg 35%
    14:00 +20°C° 0 mm 2 m/s 655 mmHg 35%
    15:00 +21°C° 0 mm 2 m/s 655 mmHg 35%
    16:00 +20°C° 0 mm 1 m/s 655 mmHg 41%
    17:00 +18°C° 0 mm 1 m/s 654 mmHg 46%
    18:00 +14°C° 0 mm 0 m/s 654 mmHg 52%
    19:00 +15°C° 0 mm 1 m/s 654 mmHg 54%
    20:00 +14°C° 0 mm 1 m/s 654 mmHg 55%
    21:00 +14°C° 0 mm 1 m/s 655 mmHg 57%
    22:00 +14°C° 0 mm 1 m/s 655 mmHg 59%
    23:00 +13°C° 0 mm 1 m/s 655 mmHg 61%
    Voir plus